Forest City, IA

12:15 AM CST on December 10, 2016 (GMT -0600)
Forest City Municipal

Weather History for KFXY - January, 2013

Change the Weather History Date:

Sunday, January 6, 2013

  Actual Average Record
Temperature  
Mean Temperature 14 °F -  
Max Temperature 21 °F 19 °F 42 °F (2012)
Min Temperature 8 °F 3 °F -18 °F (2014)
Degree Days  
Heating Degree Days 50    
Moisture  
Dew Point 9 °F    
Average Humidity 81    
Maximum Humidity 92    
Minimum Humidity 68    
Precipitation  
Precipitation 0.00 in - - ()
Sea Level Pressure  
Sea Level Pressure 30.15 in    
Wind  
Wind Speed 10 mph (West)    
Max Wind Speed 14 mph    
Max Gust Speed 20 mph    
Visibility 10 miles    
Events      
Averages and records for this station are not official NWS values.
T = Trace of Precipitation, MM = Missing Value Source: NWS Daily Summary

Daily Weather History Graph

Daily Weather History Graph

Search for Another Location

Airport or City:

Trip Planner

Search our weather history database for the weather conditions in past years. The results will help you decide how hot, cold, wet, or windy it might be!

Date:

Astronomy

Jan. 06, 2013 Rise Set
Actual Time 7:46 AM CST 4:54 PM CST
Civil Twilight 7:14 AM CST 5:26 PM CST
Nautical Twilight 6:38 AM CST 6:02 PM CST
Astronomical Twilight 6:04 AM CST 6:37 PM CST
Moon 1:57 AM CST (1/6) 12:25 PM CST (1/6)
Length of Visible Light 10h 12m
Length of Day
9h 08m
Waning Crescent, 33% of the Moon is Illuminated
Jan 6
Waning Crescent
Jan 11
New
Jan 18
First Quarter
Jan 26
Full
Feb 3
Last Quarter

Hourly Weather History & Observations

Time (CST) Temp. Windchill Dew Point Humidity Pressure Visibility Wind Dir Wind Speed Gust Speed Precip Events Conditions
12:15 AM 12.2 °F -3.1 °F 8.6 °F 85% 30.02 in 7.0 mi NW 13.8 mph 19.6 mph N/A   Scattered Clouds
12:35 AM 12.2 °F -2.5 °F 8.6 °F 85% 30.02 in 10.0 mi NW 12.7 mph 19.6 mph N/A   Clear
12:55 AM 12.2 °F -1.8 °F 8.6 °F 85% 30.04 in 10.0 mi WNW 11.5 mph - N/A   Clear
1:15 AM 12.2 °F -1.8 °F 8.6 °F 85% 30.04 in 10.0 mi NW 11.5 mph - N/A   Clear
1:35 AM 12.2 °F -2.5 °F 8.6 °F 85% 30.05 in 10.0 mi NW 12.7 mph 17.3 mph N/A   Clear
1:55 AM 12.2 °F -2.5 °F 8.6 °F 85% 30.06 in 10.0 mi NW 12.7 mph 18.4 mph N/A   Clear
2:15 AM 12.2 °F -0.2 °F 6.8 °F 79% 30.07 in 10.0 mi NW 9.2 mph - N/A   Clear
2:35 AM 10.4 °F -1.5 °F 5.0 °F 79% 30.07 in 10.0 mi NW 8.1 mph - N/A   Clear
2:55 AM 10.4 °F -2.4 °F 5.0 °F 79% 30.08 in 10.0 mi NW 9.2 mph - N/A   Clear
3:15 AM 10.4 °F -2.4 °F 5.0 °F 79% 30.08 in 10.0 mi NW 9.2 mph - N/A   Clear
3:35 AM 10.4 °F -4.8 °F 5.0 °F 79% 30.08 in 10.0 mi NW 12.7 mph 17.3 mph N/A   Clear
3:55 AM 10.4 °F -3.3 °F 3.2 °F 73% 30.09 in 10.0 mi NW 10.4 mph 19.6 mph N/A   Clear
4:15 AM 10.4 °F -3.3 °F 3.2 °F 73% 30.09 in 10.0 mi NW 10.4 mph 17.3 mph N/A   Clear
4:35 AM 10.4 °F -4.1 °F 3.2 °F 73% 30.09 in 10.0 mi NW 11.5 mph 19.6 mph N/A   Scattered Clouds
4:55 AM 10.4 °F -4.8 °F 3.2 °F 73% 30.10 in 10.0 mi NW 12.7 mph - N/A   Scattered Clouds
5:15 AM 10.4 °F -4.8 °F 3.2 °F 73% 30.10 in 10.0 mi NW 12.7 mph 17.3 mph N/A   Clear
5:35 AM 10.4 °F -3.3 °F 3.2 °F 73% 30.11 in 10.0 mi NW 10.4 mph - N/A   Clear
5:55 AM 10.4 °F -3.3 °F 3.2 °F 73% 30.12 in 10.0 mi NW 10.4 mph - N/A   Mostly Cloudy
6:15 AM 10.4 °F -3.3 °F 3.2 °F 73% 30.12 in 10.0 mi NNW 10.4 mph - N/A   Mostly Cloudy
6:35 AM 12.2 °F -1.8 °F 5.0 °F 73% 30.14 in 10.0 mi NW 11.5 mph - N/A   Overcast
6:55 AM 12.2 °F -1.0 °F 6.8 °F 79% 30.14 in 10.0 mi NW 10.4 mph - N/A   Overcast
7:35 AM 12.2 °F -1.0 °F 8.6 °F 85% 30.15 in 10.0 mi NW 10.4 mph - N/A   Overcast
7:55 AM 12.2 °F -0.2 °F 8.6 °F 85% 30.15 in 10.0 mi WNW 9.2 mph - N/A   Scattered Clouds
8:15 AM 12.2 °F 0.7 °F 8.6 °F 85% 30.17 in 10.0 mi NW 8.1 mph - N/A   Clear
8:35 AM 14.0 °F 2.0 °F 8.6 °F 79% 30.18 in 10.0 mi WNW 9.2 mph - N/A   Clear
8:55 AM 14.0 °F 5.1 °F 8.6 °F 79% 30.19 in 10.0 mi WNW 5.8 mph - N/A   Clear
9:15 AM 14.0 °F 5.1 °F 8.6 °F 79% 30.20 in 10.0 mi WNW 5.8 mph - N/A   Clear
9:35 AM 14.0 °F 1.2 °F 10.4 °F 86% 30.21 in 10.0 mi WNW 10.4 mph - N/A   Clear
9:55 AM 15.8 °F 4.2 °F 10.4 °F 79% 30.21 in 10.0 mi WNW 9.2 mph - N/A   Clear
10:15 AM 15.8 °F 3.4 °F 10.4 °F 79% 30.22 in 10.0 mi NW 10.4 mph - N/A   Clear
10:35 AM 17.6 °F 7.3 °F 10.4 °F 73% 30.23 in 10.0 mi WNW 8.1 mph - N/A   Clear
10:55 AM 17.6 °F 5.7 °F 12.2 °F 79% 30.23 in 10.0 mi WNW 10.4 mph - N/A   Clear
11:15 AM 17.6 °F 6.4 °F 10.4 °F 73% 30.23 in 10.0 mi WNW 9.2 mph - N/A   Clear
11:35 AM 17.6 °F 7.3 °F 12.2 °F 79% 30.23 in 10.0 mi WNW 8.1 mph - N/A   Clear
11:55 AM 17.6 °F 7.3 °F 12.2 °F 79% 30.22 in 10.0 mi WNW 8.1 mph - N/A   Clear
12:15 PM 17.6 °F 8.2 °F 12.2 °F 79% 30.21 in 10.0 mi WNW 6.9 mph - N/A   Clear
12:35 PM 17.6 °F 8.2 °F 12.2 °F 79% 30.21 in 10.0 mi WNW 6.9 mph - N/A   Clear
12:55 PM 19.4 °F 9.5 °F 12.2 °F 74% 30.21 in 10.0 mi WNW 8.1 mph - N/A   Clear
1:15 PM 19.4 °F 10.4 °F 12.2 °F 74% 30.21 in 10.0 mi WNW 6.9 mph - N/A   Clear
1:35 PM 19.4 °F 11.5 °F 12.2 °F 74% 30.20 in 10.0 mi WSW 5.8 mph - N/A   Clear
1:55 PM 21.2 °F 16.4 °F 12.2 °F 68% 30.19 in 10.0 mi WSW 3.5 mph - N/A   Clear
2:15 PM 19.4 °F 12.8 °F 12.2 °F 74% 30.19 in 10.0 mi SW 4.6 mph - N/A   Clear
2:35 PM 19.4 °F 11.5 °F 12.2 °F 74% 30.19 in 10.0 mi SW 5.8 mph - N/A   Clear
2:55 PM 21.2 °F 12.6 °F 14.0 °F 74% 30.20 in 10.0 mi SW 6.9 mph - N/A   Clear
3:15 PM 21.2 °F 12.6 °F 14.0 °F 74% 30.21 in 10.0 mi SW 6.9 mph - N/A   Clear
3:35 PM 21.2 °F 13.6 °F 14.0 °F 74% 30.21 in 10.0 mi SW 5.8 mph - N/A   Clear
3:55 PM 19.4 °F 14.3 °F 14.0 °F 80% 30.20 in 10.0 mi SSW 3.5 mph - N/A   Clear
4:15 PM 19.4 °F 12.8 °F 12.2 °F 74% 30.20 in 10.0 mi South 4.6 mph - N/A   Clear
4:35 PM 17.6 °F 10.7 °F 12.2 °F 79% 30.19 in 10.0 mi SSE 4.6 mph - N/A   Clear
4:55 PM 14.0 °F 5.1 °F 10.4 °F 86% 30.20 in 10.0 mi South 5.8 mph - N/A   Clear
5:15 PM 12.2 °F 4.3 °F 8.6 °F 85% 30.19 in 10.0 mi South 4.6 mph - N/A   Clear
5:35 PM 12.2 °F 2.9 °F 8.6 °F 85% 30.19 in 10.0 mi South 5.8 mph - N/A   Clear
5:55 PM 10.4 °F -0.4 °F 8.6 °F 92% 30.19 in 10.0 mi South 6.9 mph - N/A   Clear
6:15 PM 8.6 °F 0.1 °F 5.0 °F 85% 30.19 in 10.0 mi South 4.6 mph - N/A   Clear
6:35 PM 10.4 °F 0.8 °F 8.6 °F 92% 30.19 in 10.0 mi South 5.8 mph - N/A   Clear
6:55 PM 10.4 °F 2.2 °F 8.6 °F 92% 30.19 in 10.0 mi SSE 4.6 mph - N/A   Clear
7:15 PM 10.4 °F 2.2 °F 8.6 °F 92% 30.19 in 10.0 mi South 4.6 mph - N/A   Clear
7:35 PM 10.4 °F -1.5 °F 8.6 °F 92% 30.18 in 10.0 mi South 8.1 mph - N/A   Clear
7:55 PM 10.4 °F 0.8 °F 8.6 °F 92% 30.16 in 10.0 mi SSE 5.8 mph - N/A   Clear
8:15 PM 12.2 °F 4.3 °F 8.6 °F 85% 30.16 in 10.0 mi South 4.6 mph - N/A   Clear
8:35 PM 12.2 °F 2.9 °F 10.4 °F 92% 30.16 in 10.0 mi SSE 5.8 mph - N/A   Clear
8:55 PM 14.0 °F 5.1 °F 10.4 °F 86% 30.15 in 10.0 mi SSE 5.8 mph - N/A   Clear
9:15 PM 14.0 °F 5.1 °F 10.4 °F 86% 30.14 in 10.0 mi SSE 5.8 mph - N/A   Clear
9:55 PM 14.0 °F 2.9 °F 10.4 °F 86% 30.12 in 10.0 mi SE 8.1 mph - N/A   Clear
10:15 PM 14.0 °F 3.9 °F 10.4 °F 86% 30.12 in 10.0 mi SSE 6.9 mph - N/A   Clear
10:35 PM 14.0 °F 2.9 °F 10.4 °F 86% 30.12 in 10.0 mi SSE 8.1 mph - N/A   Clear
10:55 PM 17.6 °F 5.0 °F 14.0 °F 86% 30.11 in 10.0 mi SSE 11.5 mph - N/A   Clear
11:35 PM 19.4 °F 7.2 °F 14.0 °F 80% 30.09 in 10.0 mi SSE 11.5 mph 17.3 mph N/A   Clear
11:55 PM 19.4 °F 6.0 °F 14.0 °F 80% 30.09 in 10.0 mi South 13.8 mph - N/A   Clear